Location: Newark
(36.1358°N, 115.1208°W)
Time: 12:39:27
(UTC+00:00)

Vanguard 1 Rocket - Pass Details

Date: 18 February 2020
Orbit: 650 x 4226 km, 34.3° (Epoch: 05 April)

Event Time Altitude Azimuth Distance (km) Brightness Sun altitude
Rises 14:52:31 0° 275° (W) 2,975 9.4 4.5°
Reaches altitude 10° 14:54:45 10° 270° (W) 2,046 8.7 5.0°
Maximum altitude 14:59:00 51° 193° (SSW) 897 7.6 5.8°
Drops below altitude 10° 15:04:31 10° 119° (ESE) 2,655 12.3 6.8°
Sets 15:07:49 0° 114° (ESE) 3,989 13.3 7.4°
